K5KTX Weather Reports


Display with metric or nautical units.
time (UTC)temp
F
wind
direction
speed
MPH
gust
MPH
rain 1hr
in
rain 24hr
in
rain mn
in
humidity
%
barometer
mb
20260509124003 69 194 0.0 0.0 0.00 0.00 0.00 94 1011.3
20260509123503 69 194 0.0 0.0 0.00 0.00 0.00 94 1011.2
20260509123004 69 194 0.0 0.0 0.00 0.00 0.00 94 1011.3
20260509122504 69 194 0.0 0.0 0.00 0.00 0.00 94 1011.2
20260509122003 69 194 0.0 0.0 0.00 0.00 0.00 94 1011.3
20260509121511 69 194 0.0 0.0 0.00 0.00 0.00 94 1011.2
20260509121004 69 228 0.0 0.0 0.00 0.00 0.00 94 1011.3
20260509120504 69 226 0.0 0.0 0.00 0.00 0.00 94 1011.4
20260509120011 69 226 0.0 0.0 0.00 0.00 0.00 94 1011.3
20260509115504 69 226 0.0 0.0 0.00 0.00 0.00 94 1011.3
20260509115006 69 309 0.0 0.0 0.00 0.00 0.00 94 1011.1
20260509114520 69 309 0.0 0.0 0.00 0.00 0.00 94 1011.0
20260509114002 69 309 0.0 0.0 0.00 0.00 0.00 94 1010.9
20260509113503 69 309 0.0 0.0 0.00 0.00 0.00 94 1010.6
20260509113004 69 309 0.0 0.0 0.00 0.00 0.00 94 1010.5
20260509112503 69 309 0.0 0.0 0.00 0.00 0.00 94 1010.3
20260509112003 69 309 0.0 0.0 0.00 0.00 0.00 94 1010.0
20260509111507 69 309 0.0 0.0 0.00 0.00 0.00 94 1009.9
20260509111004 69 241 0.0 0.0 0.00 0.00 0.00 94 1009.9
20260509110503 69 241 0.0 0.0 0.00 0.00 0.00 94 1010.0
20260509110012 69 241 0.0 0.0 0.00 0.00 0.00 94 1010.0
20260509105503 69 241 0.0 0.0 0.00 0.00 0.00 94 1010.0
20260509105003 69 241 0.0 2.0 0.00 0.00 0.00 94 1010.0
20260509104530 69 241 0.0 3.0 0.00 0.00 0.00 94 1009.9
20260509104003 69 241 1.0 3.0 0.00 0.00 0.00 94 1009.7
20260509103503 69 241 0.0 0.0 0.00 0.00 0.00 94 1009.7
20260509103022 69 181 0.0 0.0 0.00 0.00 0.00 94 1009.4
20260509102503 69 181 0.0 0.0 0.00 0.00 0.00 94 1009.2
20260509102003 69 181 0.0 3.0 0.00 0.00 0.00 94 1009.1
20260509101510 69 245 0.0 3.0 0.00 0.00 0.00 94 1009.1
20260509101002 68 129 0.0 0.0 0.00 0.00 0.00 94 1009.0
20260509100502 68 129 0.0 3.0 0.00 0.00 0.00 94 1008.9
20260509100007 68 129 0.0 3.0 0.00 0.00 0.00 94 1008.9
20260509095504 68 134 1.0 3.0 0.00 0.00 0.00 94 1008.9
20260509095004 68 201 0.0 2.0 0.00 0.00 0.00 93 1009.0
20260509094512 68 217 0.0 4.0 0.00 0.00 0.00 93 1009.0
20260509094004 68 142 1.0 4.0 0.00 0.00 0.00 93 1008.9
20260509093508 68 117 1.0 3.0 0.00 0.00 0.00 94 1008.9
20260509093024 68 126 2.0 3.0 0.00 0.00 0.00 94 1008.9
20260509092504 68 146 0.0 3.0 0.00 0.00 0.00 94 1009.0
20260509092006 68 142 0.0 1.0 0.00 0.00 0.00 94 1009.1
20260509091522 68 137 0.0 0.0 0.00 0.00 0.00 94 1009.2
20260509091003 68 215 0.0 0.0 0.00 0.00 0.00 94 1009.3
20260509090503 68 215 0.0 1.0 0.00 0.00 0.00 94 1009.5
20260509090002 68 215 0.0 4.0 0.00 0.00 0.00 94 1009.6
20260509085502 68 215 1.0 4.0 0.00 0.00 0.00 94 1009.7
20260509085002 68 181 1.0 4.0 0.00 0.00 0.00 94 1009.9
20260509084515 68 215 2.0 4.0 0.00 0.00 0.00 94 1010.0
20260509084005 68 225 1.0 4.0 0.00 0.00 0.00 94 1010.0
20260509083503 68 205 0.0 0.0 0.00 0.00 0.00 94 1010.1
20260509083030 68 192 0.0 0.0 0.00 0.00 0.00 94 1010.2
20260509082507 68 183 0.0 0.0 0.00 0.00 0.00 94 1010.3
20260509082014 68 183 0.0 0.0 0.00 0.00 0.00 94 1010.4
20260509081524 68 183 0.0 0.0 0.00 0.00 0.00 94 1010.4
20260509081006 68 96 0.0 0.0 0.00 0.00 0.00 94 1010.7
20260509080510 68 96 0.0 0.0 0.00 0.00 0.00 94 1010.9
20260509080025 68 96 0.0 0.0 0.00 0.00 0.00 94 1011.1
20260509075503 68 96 0.0 0.0 0.00 0.00 0.00 93 1011.3
20260509075003 68 96 0.0 0.0 0.00 0.00 0.00 93 1011.2
20260509074507 68 96 0.0 0.0 0.00 0.00 0.00 93 1011.2
20260509074002 68 96 0.0 0.0 0.00 0.00 0.00 93 1011.2
20260509073503 68 96 0.0 0.0 0.00 0.00 0.00 93 1011.1
20260509073023 67 96 0.0 0.0 0.00 0.00 0.00 93 1011.2
20260509072505 67 96 0.0 0.0 0.00 0.00 0.00 93 1011.2
20260509072007 67 96 0.0 0.0 0.00 0.00 0.00 93 1011.1
20260509071518 67 96 0.0 0.0 0.00 0.00 0.00 93 1011.1
20260509071004 67 96 0.0 2.0 0.00 0.00 0.00 93 1011.1
20260509070506 67 96 0.0 2.0 0.00 0.00 0.00 93 1010.9
20260509070025 67 96 0.0 2.0 0.00 0.00 0.00 93 1011.0
20260509065506 67 96 0.0 2.0 0.00 0.00 0.00 93 1010.9
20260509065006 67 96 0.0 3.0 0.00 0.00 0.00 93 1011.0
20260509064529 68 95 1.0 3.0 0.00 0.00 0.00 93 1011.1
20260509064004 68 102 0.0 2.0 0.00 0.00 0.00 93 1011.1
20260509063505 68 104 0.0 2.0 0.00 0.00 0.00 93 1011.3
20260509063019 68 104 0.0 2.0 0.00 0.00 0.00 93 1011.4
20260509062504 68 104 1.0 2.0 0.00 0.00 0.00 93 1011.3
20260509062007 68 104 0.0 2.0 0.00 0.00 0.00 93 1011.5
20260509061520 68 104 0.0 2.0 0.00 0.00 0.00 93 1011.5
20260509061003 68 104 0.0 2.0 0.00 0.00 0.00 93 1011.5
20260509060506 68 104 0.0 2.0 0.00 0.00 0.00 93 1011.6
20260509060020 68 104 0.0 2.0 0.00 0.00 0.00 93 1011.5
20260509055506 68 104 0.0 2.0 0.00 0.00 0.00 92 1011.6
20260509055007 68 104 0.0 2.0 0.00 0.00 0.00 92 1011.6
20260509054531 68 104 0.0 2.0 0.00 0.00 0.00 92 1011.5
20260509054009 67 104 0.0 1.0 0.00 0.00 0.00 92 1011.3
20260509053507 67 104 0.0 2.0 0.00 0.00 0.00 92 1011.3
20260509053039 68 104 1.0 2.0 0.00 0.00 0.00 92 1011.4
20260509052501 67 104 0.0 0.0 0.00 0.00 0.00 92 1011.5
20260509052003 67 104 0.0 0.0 0.00 0.00 0.00 92 1011.6
20260509051512 67 104 0.0 0.0 0.00 0.00 0.00 92 1011.1
20260509051003 67 104 0.0 2.0 0.00 0.00 0.00 92 1010.9
20260509050503 67 104 0.0 2.0 0.00 0.00 0.00 92 1010.8
20260509050022 67 104 0.0 3.0 0.00 0.00 0.00 92 1010.5
20260509045515 67 171 1.0 4.0 0.00 0.00 0.00 92 1010.4
20260509045006 67 203 2.0 6.0 0.00 0.00 0.00 92 1010.4
20260509044526 67 163 3.0 8.0 0.00 0.00 0.00 92 1010.5
20260509044011 67 178 4.0 8.0 0.00 0.00 0.00 92 1010.4
20260509043510 68 157 3.0 7.0 0.00 0.00 0.00 92 1010.5
20260509043030 67 147 2.0 5.0 0.00 0.00 0.00 92 1011.4
20260509042508 68 9 2.0 4.0 0.00 0.00 0.00 92 1012.0
20260509042013 68 49 1.0 7.0 0.00 0.00 0.00 92 1012.0
20260509041529 68 51 3.0 10.0 0.00 0.00 0.00 91 1011.9
20260509041003 68 350 6.0 10.0 0.00 0.00 0.00 91 1012.0
20260509040502 68 11 4.0 6.0 0.00 0.00 0.00 91 1011.7
20260509040027 68 351 3.0 4.0 0.00 0.00 0.00 91 1011.6
20260509035501 68 9 2.0 3.0 0.00 0.00 0.00 90 1011.4
20260509035003 68 5 0.0 0.0 0.00 0.00 0.00 90 1011.2
20260509034503 69 5 0.0 0.0 0.00 0.00 0.00 90 1010.9
20260509034003 69 5 0.0 0.0 0.00 0.00 0.00 90 1010.8
20260509033502 69 5 0.0 0.0 0.00 0.00 0.00 90 1011.1
20260509033004 69 5 0.0 0.0 0.00 0.00 0.00 89 1011.0
20260509032507 69 5 0.0 0.0 0.00 0.00 0.00 89 1010.8
20260509032004 69 5 0.0 0.0 0.00 0.00 0.00 89 1010.8
20260509031511 69 5 0.0 0.0 0.00 0.00 0.00 89 1010.8
20260509031003 69 5 0.0 0.0 0.00 0.00 0.00 88 1010.6
20260509030503 69 5 0.0 0.0 0.00 0.00 0.00 88 1010.7
20260509030028 69 5 0.0 0.0 0.00 0.00 0.00 89 1010.7
20260509025503 69 5 0.0 0.0 0.00 0.00 0.00 89 1010.7
20260509025003 69 5 0.0 0.0 0.00 0.00 0.00 88 1010.7
20260509024518 69 310 0.0 0.0 0.00 0.00 0.00 88 1010.5
20260509024002 69 265 0.0 0.0 0.00 0.00 0.00 88 1010.3
20260509023502 69 342 0.0 0.0 0.00 0.00 0.00 87 1010.1
20260509023005 69 49 0.0 0.0 0.00 0.00 0.00 87 1010.2
20260509022502 69 49 0.0 0.0 0.00 0.00 0.00 87 1010.1
20260509022003 69 49 0.0 0.0 0.00 0.00 0.00 86 1010.0
20260509021508 69 49 0.0 0.0 0.00 0.00 0.00 86 1009.8
20260509021004 69 49 0.0 0.0 0.00 0.00 0.00 86 1009.9
20260509020502 69 49 0.0 0.0 0.00 0.00 0.00 85 1009.7
20260509020011 69 49 0.0 0.0 0.00 0.00 0.00 85 1009.8
20260509015503 69 49 0.0 0.0 0.00 0.00 0.00 85 1009.8
20260509015006 70 49 0.0 0.0 0.00 0.00 0.00 84 1009.8
20260509014517 70 49 0.0 0.0 0.00 0.00 0.00 82 1009.8
20260509014010 71 49 0.0 0.0 0.00 0.00 0.00 81 1009.7
20260509013507 71 49 0.0 0.0 0.00 0.00 0.00 80 1009.6
20260509013024 71 49 0.0 0.0 0.00 0.00 0.00 80 1009.5
20260509012505 72 49 0.0 0.0 0.00 0.00 0.00 79 1009.4
20260509012005 72 49 0.0 0.0 0.00 0.00 0.00 78 1009.3
20260509011504 72 203 0.0 0.0 0.00 0.00 0.00 79 1009.3
20260509011007 72 203 0.0 0.0 0.00 0.00 0.00 77 1009.2
20260509010503 73 203 0.0 0.0 0.00 0.00 0.00 77 1009.1
20260509010032 73 203 0.0 0.0 0.00 0.00 0.00 77 1009.0
20260509005504 73 203 0.0 0.0 0.00 0.00 0.00 77 1008.9
20260509005011 73 203 0.0 0.0 0.00 0.00 0.00 77 1008.9
20260509004523 73 203 0.0 0.0 0.00 0.00 0.00 77 1008.9
20260509004007 73 203 0.0 1.0 0.00 0.00 0.00 77 1008.9
20260509003504 73 187 0.0 2.0 0.00 0.00 0.00 77 1009.0
20260509003018 73 187 0.0 2.0 0.00 0.00 0.00 76 1008.9
20260509002508 73 187 1.0 3.0 0.00 0.00 0.00 75 1008.9
20260509002008 73 201 2.0 4.0 0.00 0.00 0.00 74 1008.9
20260509001523 74 209 2.0 4.0 0.00 0.00 0.00 74 1009.0
20260509001004 74 209 2.0 4.0 0.00 0.00 0.00 75 1009.0
20260509000503 74 236 2.0 5.0 0.00 0.00 0.00 75 1009.1
20260509000026 74 229 3.0 5.0 0.00 0.00 0.00 75 1009.1
20260508235505 74 232 2.0 5.0 0.00 0.00 0.00 76 1009.2
20260508235006 74 240 2.0 5.0 0.00 0.00 0.00 74 1009.3
20260508234514 75 222 3.0 5.0 0.00 0.00 0.00 74 1009.3
20260508234004 75 208 3.0 6.0 0.00 0.00 0.00 73 1009.4
20260508233504 75 220 2.0 7.0 0.00 0.00 0.00 72 1009.5
20260508233016 75 211 4.0 7.0 0.00 0.00 0.00 72 1009.4
20260508232503 76 207 3.0 9.0 0.00 0.00 0.00 70 1009.4
20260508232006 76 211 4.0 9.0 0.00 0.00 0.00 68 1009.6
20260508231521 76 198 4.0 7.0 0.00 0.00 0.00 66 1009.6
20260508231008 77 191 2.0 7.0 0.00 0.00 0.00 67 1009.6
20260508230508 77 186 4.0 7.0 0.00 0.00 0.00 67 1009.6
20260508230030 77 197 2.0 8.0 0.00 0.00 0.00 67 1009.7
20260508225508 77 190 5.0 10.0 0.00 0.00 0.00 65 1009.7
20260508225004 78 154 4.0 10.0 0.00 0.00 0.00 65 1009.5
20260508224507 78 226 5.0 9.0 0.00 0.00 0.00 64 1009.3
20260508224003 78 217 2.0 7.0 0.00 0.00 0.00 69 1009.2
20260508223504 77 194 3.0 7.0 0.00 0.00 0.00 68 1009.2
20260508223034 77 138 1.0 7.0 0.00 0.00 0.00 69 1008.9
20260508222502 76 209 2.0 5.0 0.00 0.00 0.00 71 1008.8
20260508222008 75 173 1.0 8.0 0.00 0.00 0.00 72 1008.6
20260508221520 75 138 2.0 8.0 0.00 0.00 0.00 72 1008.2
20260508221006 74 103 3.0 8.0 0.00 0.00 0.00 74 1007.6
20260508220507 73 352 2.0 8.0 0.00 0.00 0.00 73 1008.7
20260508220023 74 9 4.0 4.0 0.00 0.00 0.00 71 1009.0
20260508215511 74 150 1.0 3.0 0.00 0.00 0.00 70 1009.1
20260508215011 74 150 0.0 5.0 0.00 0.00 0.00 70 1009.9
20260508214528 75 182 2.0 5.0 0.00 0.00 0.00 69 1010.2
20260508214003 75 223 2.0 4.0 0.00 0.00 0.00 69 1010.7
20260508213503 75 205 1.0 2.0 0.00 0.00 0.00 69 1010.4
20260508213020 75 207 0.0 3.0 0.00 0.00 0.00 68 1010.3
20260508212505 75 192 1.0 4.0 0.00 0.00 0.00 66 1010.1
20260508212014 75 236 1.0 4.0 0.00 0.00 0.00 67 1010.5
20260508211516 75 234 2.0 6.0 0.00 0.00 0.00 66 1010.7
20260508211008 76 246 3.0 7.0 0.00 0.00 0.00 64 1010.7
20260508210506 76 234 4.0 7.0 0.00 0.00 0.00 64 1010.8
20260508210028 76 230 4.0 7.0 0.00 0.00 0.00 63 1010.9
20260508205508 77 241 4.0 7.0 0.00 0.00 0.00 63 1010.8
20260508205006 77 234 2.0 7.0 0.00 0.00 0.00 62 1010.7
20260508204528 77 221 3.0 7.0 0.00 0.00 0.00 63 1010.6
20260508204010 77 205 4.0 6.0 0.00 0.00 0.00 64 1010.6
20260508203508 76 205 0.0 4.0 0.00 0.00 0.00 63 1010.8
20260508203030 77 205 2.0 4.0 0.00 0.00 0.00 62 1010.8
20260508202503 77 209 3.0 4.0 0.00 0.00 0.00 61 1010.8
20260508202003 77 209 2.0 6.0 0.00 0.00 0.00 60 1010.9
20260508201518 77 203 3.0 6.0 0.00 0.00 0.00 61 1010.9
20260508201006 78 217 4.0 6.0 0.00 0.00 0.00 64 1010.8
20260508200506 78 158 2.0 5.0 0.00 0.00 0.00 65 1010.9
20260508200024 77 169 1.0 5.0 0.00 0.00 0.00 67 1011.0
20260508195511 77 167 2.0 5.0 0.00 0.00 0.00 68 1011.2
20260508195006 77 156 2.0 6.0 0.00 0.00 0.00 63 1011.3
20260508194533 76 111 1.0 6.0 0.00 0.00 0.00 63 1011.5
20260508194006 76 165 3.0 7.0 0.00 0.00 0.00 64 1011.6
20260508193509 77 166 0.0 7.0 0.00 0.00 0.00 65 1011.6
20260508193026 76 207 2.0 7.0 0.00 0.00 0.00 65 1011.6
20260508192510 76 141 2.0 5.0 0.00 0.00 0.00 64 1011.6
20260508192013 76 150 1.0 6.0 0.00 0.00 0.00 66 1011.5
20260508191537 76 159 2.0 6.0 0.00 0.00 0.00 65 1011.7
20260508191003 75 130 2.0 5.0 0.00 0.00 0.00 66 1011.9
20260508190504 75 133 2.0 5.0 0.00 0.00 0.00 70 1012.0
20260508190019 75 142 1.0 4.0 0.00 0.00 0.00 67 1012.0
20260508185506 76 180 1.0 6.0 0.00 0.00 0.00 68 1012.0
20260508185004 75 155 2.0 6.0 0.00 0.00 0.00 65 1012.0
20260508184523 75 191 1.0 5.0 0.00 0.00 0.00 66 1012.0
20260508184003 74 177 1.0 4.0 0.00 0.00 0.00 66 1012.1
20260508183505 75 200 2.0 5.0 0.00 0.00 0.00 67 1012.2
20260508183004 74 168 2.0 5.0 0.00 0.00 0.00 65 1012.2
20260508182504 74 210 1.0 4.0 0.00 0.00 0.00 69 1012.3
20260508182003 74 233 2.0 7.0 0.00 0.00 0.00 69 1012.4
20260508181531 74 150 4.0 6.0 0.00 0.00 0.00 66 1012.5
20260508181004 74 227 0.0 5.0 0.00 0.00 0.00 68 1012.7
20260508180503 74 212 2.0 8.0 0.00 0.00 0.00 68 1012.8
20260508180020 73 219 3.0 8.0 0.00 0.00 0.00 68 1012.8
20260508175504 74 224 3.0 6.0 0.00 0.00 0.00 69 1012.9
20260508175007 74 213 2.0 4.0 0.00 0.00 0.00 74 1013.1
20260508174519 73 104 1.0 5.0 0.00 0.00 0.00 72 1013.3
20260508174002 72 204 3.0 6.0 0.00 0.00 0.00 69 1013.4
20260508173502 72 205 3.0 6.0 0.00 0.00 0.00 67 1013.5
20260508173003 72 248 2.0 5.0 0.00 0.00 0.00 68 1013.6
20260508172506 72 218 4.0 7.0 0.00 0.00 0.00 68 1013.9
20260508172003 72 234 2.0 7.0 0.00 0.00 0.00 71 1013.9
20260508171510 72 215 4.0 9.0 0.00 0.00 0.00 69 1014.0
20260508171003 72 194 4.0 9.0 0.00 0.00 0.00 69 1014.0
20260508170509 72 197 3.0 9.0 0.00 0.00 0.00 70 1014.1
20260508170011 72 209 4.0 8.0 0.00 0.00 0.00 69 1014.1
20260508165503 72 186 4.0 8.0 0.00 0.00 0.00 69 1014.2
20260508165011 71 220 3.0 7.0 0.00 0.00 0.00 69 1014.3
20260508164518 72 199 3.0 7.0 0.00 0.00 0.00 68 1014.5
20260508164007 71 232 3.0 9.0 0.00 0.00 0.00 68 1014.7
20260508163505 72 209 4.0 11.0 0.00 0.00 0.00 67 1014.7
20260508163004 72 230 6.0 11.0 0.00 0.00 0.00 68 1014.5
20260508162503 72 217 5.0 8.0 0.00 0.00 0.00 69 1014.4
20260508162002 72 215 5.0 8.0 0.00 0.00 0.00 70 1014.4
20260508161505 72 202 4.0 7.0 0.00 0.00 0.00 71 1014.5
20260508161004 71 216 2.0 7.0 0.00 0.00 0.00 69 1014.5
20260508160502 71 190 3.0 7.0 0.00 0.00 0.00 71 1014.7
20260508160019 71 228 4.0 9.0 0.00 0.00 0.00 70 1014.8
20260508155504 71 154 3.0 8.0 0.00 0.00 0.00 70 1014.9
20260508155003 72 197 3.0 5.0 0.00 0.00 0.00 71 1014.8
20260508154518 71 186 2.0 3.0 0.00 0.00 0.00 75 1014.8
20260508154006 70 183 2.0 5.0 0.00 0.00 0.00 74 1014.8
20260508153506 70 128 2.0 6.0 0.00 0.00 0.00 72 1014.8
20260508153019 71 192 3.0 6.0 0.00 0.00 0.00 72 1014.9
20260508152513 71 177 3.0 5.0 0.00 0.00 0.00 71 1015.0
20260508152014 71 225 2.0 4.0 0.00 0.00 0.00 72 1015.2
20260508151504 70 148 1.0 3.0 0.00 0.00 0.00 74 1015.1
20260508151003 70 122 0.0 3.0 0.00 0.00 0.00 73 1015.0
20260508150503 70 120 0.0 3.0 0.00 0.00 0.00 75 1015.1
20260508150018 69 166 1.0 4.0 0.00 0.00 0.00 75 1015.2
20260508145503 69 148 1.0 4.0 0.00 0.00 0.00 75 1015.1
20260508145004 68 142 0.0 2.0 0.00 0.00 0.00 75 1015.1
20260508144512 68 142 0.0 3.0 0.00 0.00 0.00 76 1015.2
20260508144002 67 209 0.0 4.0 0.00 0.00 0.00 79 1015.1
20260508143511 67 145 2.0 4.0 0.00 0.00 0.00 80 1015.1
20260508143018 66 148 0.0 4.0 0.00 0.00 0.00 82 1015.1
20260508142507 65 156 2.0 4.0 0.00 0.00 0.00 85 1015.1
20260508142007 65 138 1.0 5.0 0.00 0.00 0.00 86 1015.1
20260508141525 64 144 1.0 5.0 0.00 0.00 0.00 89 1015.2
20260508141010 63 97 1.0 3.0 0.00 0.00 0.00 91 1015.2
20260508140511 63 194 2.0 3.0 0.00 0.00 0.00 91 1015.2
20260508140009 62 111 1.0 3.0 0.00 0.00 0.00 91 1015.2
20260508135503 61 99 2.0 3.0 0.00 0.00 0.00 91 1015.4
20260508135004 61 99 1.0 2.0 0.00 0.00 0.00 92 1015.4
20260508134510 61 103 0.0 1.0 0.00 0.00 0.00 92 1015.5
20260508134005 61 109 0.0 2.0 0.00 0.00 0.00 92 1015.5
20260508133507 60 109 0.0 2.0 0.00 0.00 0.00 92 1015.5
20260508133014 60 26 0.0 2.0 0.00 0.00 0.00 93 1015.6
20260508132510 60 26 1.0 2.0 0.00 0.00 0.00 93 1015.7
20260508132005 60 26 0.0 0.0 0.00 0.00 0.00 93 1015.7
20260508131521 60 26 0.0 0.0 0.00 0.00 0.00 94 1015.7
20260508131015 59 196 0.0 0.0 0.00 0.00 0.00 94 1015.6
20260508130505 59 196 0.0 0.0 0.00 0.00 0.00 93 1015.6
20260508130025 59 196 0.0 0.0 0.00 0.00 0.00 94 1015.6
20260508125507 59 196 0.0 0.0 0.00 0.00 0.00 94 1015.6
20260508125010 59 196 0.0 0.0 0.00 0.00 0.00 94 1015.6
20260508124506 59 196 0.0 0.0 0.00 0.00 0.00 94 1015.7